Weather in Velizhany

Russia / Tyumen Oblast     57°32′53″N   65°45′02″E
temp.,
°C
wind,
m/s
gust,
m/s
humid.,
%
clouds,
%
prec.,
mm/h
press.,
hPa
HPBL,
m
23 april, fri
fri2323:00+9s51361100 0.0 1034498
02:00+7sse51165100 0.0 1034369
05:00+5sse41167100 0.0 1034298
08:00+9s41062100 0.0 1033340
11:00+11ssw4852100 0.0 1033798
14:00+14ssw5940100 0.0 10321943
17:00+14ssw5947100 0.1 10321810
20:00+11ssw51065100 0.4 10321093
24 april, sat
sat2423:00+10s4958100 0.5 1031734
02:00+8sse3954100 0.1 1031346
05:00+6sse3855100 0.1 1030264
08:00+7sse4850100 0.0 1029388
11:00+10sse4640100 0.0 1028797
14:00+11sse5636100 0.0 10271260
17:00+10sse4643100 0.0 10261350
20:00+9se4847100 0.0 1026570
25 april, sun
sun2523:00+7se4952100 0.0 1024465
02:00+6ese4958100 0.0 1022346
05:00+5ese31062100 0.0 1022351
08:00+6ese3956100 0.0 1020384
11:00+10se5844100 0.0 10191404
14:00+13se573685 0.0 10171831
17:00+13sse584281 0.0 10151902
20:00+10ese385393 0.0 1014180
26 april, mon
mon2623:00+8s397158 0.0 1013454
02:00+8ssw497587 0.2 1011675
05:00+5sw411845 0.2 1012424
08:00+5wsw4989100 0.4 10101124
11:00+7w6106879 0.8 10131253
14:00+12w71132100 0.0 10133433
17:00+11w61138100 0.1 10142667
20:00+8sw510536 0.1 1015442
27 april, tue
tue2723:00+6wsw412560 0.1 1016359
02:00+5sw3116586 0.0 1016270
05:00+4sw31068100 0.0 1016238
08:00+7sw3658100 0.0 1015272
11:00+9ssw5650100 0.0 1014904
14:00+9s3457100 0.0 10121015
17:00+8ese3576100 0.2 1010873
20:00+6ene2587100 0.4 10081020